Temperature
4 4 4 4 4 4 4 3 3 3 3 3 3 2 2 2 2 2 2 2 2 2 2 2 2 2 2 2 2 2 1 1 1 1 1 1 1 1 1 1 1 2 2
3 3 3 3 3 3 3 3 3 2 2 2 2 2 2 2 2 2 2 2 2 2 2 2 2 2 2 2 1 1 1 1 1 1 1 1 1 1 1 1 1 1 1
3 3 3 3 3 3 3 3 2 2 2 2 2 2 2 2 1 1 1 1 1 1 1 1 1 1 1 1 1 1 1 0 0 0 0 0 0 0 0 0 0 1 1
2 2 2 2 2 2 2 2 2 2 2 2 1 1 1 1 1 1 1 1 1 1 1 1 1 1 1 1 0 0 0 -0 -0 -0 -0 -0 -0 -0 -0 -0 0 0 0
2 2 2 2 2 2 2 1 1 1 1 1 1 1 1 1 1 0 0 0 0 0 0 0 0 0 0 0 -0 -0 -0 -0 -1 -1 -1 -1 -1 -1 -1 -1 -1 -1 -1
1 1 1 1 1 1 1 1 1 1 1 0 0 0 0 0 0 -0 -0 -0 -0 -0 -0 -0 -0 -0 -0 -0 -0 -1 -1 -1 -1 -1 -1 -1 -1 -1 -1 -1 -1 -1 -1
1 1 1 1 1 1 1 1 0 0 0 0 0 -0 -0 -0 -0 -1 -1 -1 -1 -1 -1 -1 -1 -1 -1 -1 -1 -1 -1 -1 -1 -1 -2 -2 -2 -1 -2 -2 -2 -2 -2
1 1 0 0 0 0 0 0 0 -0 -0 -0 -0 -0 -0 -0 -1 -1 -1 -1 -1 -1 -1 -1 -2 -1 -1 -1 -1 -1 -1 -1 -2 -2 -2 -2 -2 -2 -2 -2 -2 -3 -2
0 0 0 0 0 -0 -0 -0 -0 -0 -1 -1 -1 -1 -1 -1 -1 -1 -2 -2 -2 -2 -2 -2 -2 -2 -2 -2 -2 -2 -2 -2 -2 -2 -2 -2 -2 -3 -3 -3 -3 -3 -3
0 0 -0 -0 -0 -0 -1 -1 -1 -1 -1 -1 -1 -1 -1 -1 -1 -2 -2 -2 -2 -2 -2 -2 -2 -2 -2 -2 -2 -2 -2 -2 -2 -2 -2 -3 -3 -3 -3 -3 -3 -3 -4
-0 -0 -1 -1 -1 -1 -1 -1 -1 -2 -2 -2 -2 -2 -2 -2 -2 -2 -2 -2 -2 -2 -2 -2 -2 -3 -3 -3 -3 -3 -3 -3 -3 -3 -3 -3 -3 -3 -3 -3 -3 -4 -4
-0 -1 -1 -1 -1 -1 -2 -2 -2 -2 -2 -2 -2 -2 -2 -2 -2 -2 -2 -3 -3 -3 -3 -3 -3 -3 -3 -3 -3 -3 -3 -3 -3 -3 -3 -3 -3 -3 -3 -3 -4 -4 -4
-1 -1 -1 -2 -2 -2 -2 -2 -2 -2 -3 -3 -3 -3 -3 -3 -3 -3 -3 -3 -3 -3 -3 -3 -4 -4 -4 -4 -4 -4 -4 -4 -4 -4 -4 -4 -4 -4 -4 -4 -4 -4 -4
-1 -1 -2 -2 -2 -2 -3 -3 -3 -3 -3 -3 -3 -3 -3 -3 -3 -3 -3 -3 -3 -4 -4 -4 -4 -4 -4 -4 -4 -4 -4 -4 -4 -4 -4 -4 -4 -4 -4 -4 -4 -4 -4
-2 -2 -2 -2 -3 -3 -3 -3 -3 -3 -3 -3 -3 -3 -4 -3 -3 -4 -4 -4 -4 -4 -4 -4 -4 -4 -4 -4 -4 -4 -4 -4 -4 -4 -4 -4 -4 -4 -4 -4 -4 -4 -4
-2 -2 -3 -3 -3 -3 -3 -4 -4 -4 -4 -4 -4 -4 -4 -4 -4 -4 -4 -4 -4 -4 -4 -4 -5 -5 -5 -5 -5 -5 -5 -5 -5 -5 -5 -5 -5 -5 -5 -5 -5 -5 -5
-3 -3 -3 -3 -4 -4 -4 -4 -4 -4 -4 -4 -4 -4 -4 -4 -4 -4 -4 -4 -4 -5 -5 -5 -5 -5 -5 -5 -5 -5 -5 -5 -5 -5 -5 -5 -5 -5 -5 -5 -5 -5 -5
-3 -3 -4 -4 -4 -4 -4 -4 -4 -4 -4 -4 -4 -5 -4 -4 -4 -4 -4 -4 -5 -5 -5 -5 -5 -5 -5 -5 -6 -5 -5 -5 -5 -5 -5 -5 -5 -5 -5 -5 -5 -5 -5
-4 -4 -4 -4 -4 -4 -4 -5 -5 -5 -5 -5 -5 -5 -5 -5 -5 -5 -5 -5 -5 -5 -5 -5 -5 -5 -6 -6 -6 -6 -6 -6 -6 -6 -6 -6 -5 -5 -5 -5 -5 -5 -5
-4 -4 -4 -4 -4 -5 -5 -5 -5 -5 -5 -5 -5 -5 -5 -5 -5 -5 -5 -5 -5 -5 -5 -6 -6 -6 -6 -6 -6 -6 -6 -6 -6 -6 -6 -6 -6 -6 -6 -5 -6 -5 -5
-4 -4 -5 -5 -5 -5 -5 -5 -5 -5 -5 -5 -5 -5 -5 -5 -5 -5 -5 -5 -6 -6 -6 -6 -6 -6 -6 -6 -6 -6 -6 -6 -6 -6 -6 -6 -6 -6 -6 -6 -6 -6 -6
-5 -5 -5 -5 -5 -5 -5 -5 -5 -5 -5 -5 -5 -5 -5 -5 -5 -5 -6 -6 -6 -6 -6 -6 -6 -6 -6 -6 -6 -6 -6 -6 -6 -6 -6 -6 -6 -6 -6 -6 -6 -6 -6
-5 -5 -5 -5 -5 -5 -5 -5 -5 -5 -5 -5 -5 -5 -5 -6 -6 -6 -6 -6 -6 -6 -6 -6 -6 -6 -6 -6 -6 -6 -6 -6 -6 -6 -6 -6 -6 -6 -6 -6 -6 -6 -6
-5 -5 -5 -5 -6 -5 -6 -6 -6 -6 -5 -6 -5 -6 -6 -6 -6 -6 -6 -6 -6 -6 -6 -6 -6 -6 -6 -6 -6 -6 -6 -6 -6 -6 -6 -6 -6 -6 -6 -6 -6 -6 -6
-6 -6 -6 -6 -6 -6 -6 -6 -6 -6 -6 -6 -6 -6 -6 -6 -6 -6 -6 -6 -6 -6 -6 -6 -6 -6 -6 -6 -6 -6 -6 -6 -6 -6 -6 -6 -6 -6 -6 -6 -6 -6 -6
-6 -6 -6 -6 -6 -6 -6 -6 -6 -6 -6 -6 -6 -6 -6 -6 -6 -6 -6 -6 -6 -6 -6 -6 -6 -6 -6 -6 -6 -6 -6 -6 -6 -6 -6 -6 -6 -6 -6 -6 -6 -6 -6
Wind_Speed
2 2 2 2 2 3 3 3 2 2 2 2 2 2 3 3 2 3 3 2 3 3 3 3 4 3 3 3 2 2 3 3 5 4 2 3 3 4 6 7 8 8 9
2 2 2 2 2 2 2 2 2 2 2 2 2 2 3 2 3 3 3 3 3 3 4 4 4 3 3 3 3 3 3 4 4 5 4 3 4 4 4 5 7 7 8
2 2 2 2 2 2 2 2 2 2 2 1 1 2 2 2 3 3 3 3 3 4 4 4 4 3 4 3 3 4 3 3 3 4 4 3 3 3 4 4 5 5 7
2 2 2 2 2 2 2 2 2 2 2 2 1 2 2 2 2 3 3 3 3 3 3 4 4 4 5 5 4 5 4 4 3 3 4 4 3 3 2 3 4 4 5
2 2 1 1 2 2 1 1 1 1 1 1 1 1 1 1 2 2 2 3 3 3 3 3 4 5 6 5 5 4 4 4 4 3 4 4 4 2 3 3 4 4 4
2 2 1 1 1 1 1 1 1 1 1 1 1 1 2 2 3 3 3 2 3 3 4 4 4 4 5 7 8 7 6 5 5 4 4 5 5 4 3 3 3 4 4
2 1 1 2 1 1 1 1 1 1 1 1 1 1 2 3 4 4 4 2 3 3 4 4 4 3 4 3 4 6 6 7 7 6 5 6 5 4 3 4 4 4 5
2 2 1 1 1 1 1 0 1 1 1 2 1 2 2 3 4 4 4 2 2 3 3 4 4 4 3 3 2 2 3 4 5 4 5 6 5 4 4 4 4 4 4
3 2 2 2 1 1 0 1 1 1 1 1 1 2 2 3 4 4 4 2 2 3 3 3 3 4 5 5 3 3 3 4 5 6 7 6 7 6 4 2 2 3 4
3 3 2 2 2 2 1 1 1 1 1 1 1 2 2 3 4 4 4 1 2 2 2 2 5 5 6 6 4 4 4 4 3 3 3 4 4 4 5 3 3 4 4
2 2 2 2 2 2 1 1 1 1 1 1 2 2 2 3 4 5 4 1 2 2 2 2 3 6 6 6 5 4 6 4 3 3 2 2 2 2 3 3 3 4 4
2 2 2 1 1 1 1 1 1 1 0 1 1 2 2 2 3 4 5 4 3 2 3 3 3 5 5 5 4 3 4 3 1 2 2 2 3 3 3 3 4 5 5
1 2 1 1 1 1 1 1 1 0 1 1 1 2 2 2 2 4 4 5 5 3 3 4 5 5 4 3 3 4 3 2 2 2 3 3 3 3 3 2 3 3 3
2 2 1 1 1 0 1 1 1 1 1 2 2 2 2 2 2 2 2 3 3 3 2 3 4 3 2 2 2 2 1 2 2 3 2 3 2 2 2 2 2 2 2
1 1 1 1 1 1 0 1 2 3 3 3 3 3 3 3 4 5 3 2 2 2 1 1 0 1 1 1 1 1 1 1 2 2 2 2 2 2 2 2 2 2 2
1 1 1 1 1 1 1 1 2 2 3 4 4 4 3 5 6 6 6 5 4 3 1 1 1 1 2 2 2 2 2 2 2 2 2 2 3 3 3 2 2 2 2
2 2 1 1 1 1 1 1 2 3 3 3 4 4 4 5 6 5 5 4 3 2 1 1 2 2 2 2 2 2 2 2 2 2 3 3 3 3 2 2 2 2 2
2 2 2 2 2 2 2 2 1 1 2 2 3 4 4 5 5 4 4 3 2 2 1 2 2 2 3 3 3 3 3 2 2 2 2 3 3 3 2 3 2 2 3
2 2 2 2 1 2 2 1 1 1 1 2 2 3 4 4 4 3 3 1 1 2 2 2 2 2 3 3 3 3 3 3 3 2 3 3 3 3 3 3 2 3 3
2 3 2 1 1 1 1 1 1 1 2 2 2 3 2 2 1 2 2 1 2 3 3 3 3 3 3 3 3 3 3 3 3 3 3 3 2 2 3 3 3 3 3
2 2 2 1 1 2 2 2 2 2 2 2 3 3 3 2 2 2 2 2 3 3 3 3 3 3 3 3 3 3 3 3 3 3 3 3 2 2 3 3 3 3 2
2 2 2 2 2 2 2 2 2 2 2 3 3 3 5 2 2 3 3 3 3 3 4 4 4 4 3 3 3 3 4 4 4 3 3 3 3 2 3 3 2 2 2
2 2 2 2 2 3 2 1 2 2 2 3 3 2 2 2 3 3 3 3 3 4 4 3 4 3 3 4 4 4 4 4 4 4 3 3 3 3 3 3 3 3 2
2 2 2 2 2 2 2 2 2 2 3 3 2 3 3 3 3 3 3 3 3 4 4 4 4 4 5 4 4 4 5 5 5 5 5 4 3 3 3 2 3 3 2
2 2 2 2 2 2 2 2 2 2 3 3 2 3 3 3 3 3 3 3 4 4 4 4 4 4 5 5 5 5 6 6 6 4 4 3 3 3 3 3 2 2 2
2 2 2 2 2 2 2 2 2 2 2 3 2 3 3 3 3 3 3 3 3 4 4 4 4 5 5 4 5 5 5 5 5 5 4 3 3 3 3 2 2 2 2
Wind_Direction
172 167 158 162 166 164 169 176 175 175 174 177 194 203 206 206 211 209 217 220 223 234 233 225 235 231 232 234 227 228 229 223 248 269 267 281 287 294 309 309 305 304 299
149 143 151 148 145 154 167 177 168 179 185 189 194 209 214 209 208 214 224 231 224 232 239 235 241 239 236 236 230 234 233 223 233 261 278 284 280 286 296 300 306 304 298
135 129 129 135 147 161 175 179 169 175 179 185 196 219 228 221 217 221 225 234 235 237 243 243 245 237 242 242 234 235 236 240 232 247 271 280 280 291 299 301 303 303 302
135 132 142 160 163 170 176 175 173 173 185 199 215 232 238 232 223 224 228 235 240 244 247 247 247 242 241 239 239 237 234 238 235 244 264 276 279 285 284 294 305 304 302
140 149 179 176 155 153 167 173 162 179 197 198 210 258 264 247 233 227 232 238 243 257 261 258 255 252 252 249 245 236 227 231 233 244 260 270 274 277 269 272 289 299 298
159 176 179 151 145 153 172 165 161 213 213 196 220 242 270 272 274 269 259 242 246 252 264 269 270 268 266 266 259 249 238 231 229 233 248 256 262 255 259 269 283 299 298
180 180 173 158 148 163 172 152 193 231 216 229 237 238 262 272 274 276 273 255 250 254 258 264 271 270 272 260 268 269 265 258 246 235 238 247 249 245 245 266 272 274 274
176 178 170 155 159 144 139 182 237 234 228 231 243 249 262 275 278 277 283 264 251 256 258 253 253 260 257 241 243 261 264 265 258 248 238 242 243 239 233 244 262 276 278
181 193 191 182 180 182 207 267 272 254 261 250 250 245 253 272 279 277 282 248 251 263 258 251 248 246 262 259 239 241 255 264 264 259 257 261 261 262 258 254 263 276 285
198 203 198 188 185 205 226 247 259 246 264 280 277 257 251 264 283 285 283 236 249 265 270 260 257 259 265 265 238 231 249 256 254 268 273 283 286 280 270 251 241 252 272
195 189 196 196 200 213 224 239 242 259 299 300 296 285 267 275 290 292 289 246 235 257 270 275 270 277 277 274 261 238 248 253 231 231 248 262 275 276 273 265 245 236 248
177 176 192 201 209 196 181 238 242 209 243 291 309 311 297 291 296 298 296 283 269 242 257 267 274 284 284 284 278 261 263 261 226 219 240 258 263 266 268 270 260 251 247
146 153 168 183 188 174 185 203 237 238 242 270 279 295 299 300 299 303 302 296 292 276 260 273 283 291 296 296 288 284 279 251 223 230 250 260 260 261 267 277 283 286 288
164 162 162 167 168 175 206 203 211 226 238 254 261 272 287 295 295 295 293 294 288 296 291 289 300 310 315 311 308 308 295 257 235 237 254 262 265 265 264 270 277 286 293
174 168 167 173 177 196 261 247 237 240 236 238 241 240 256 274 281 289 292 279 262 258 264 248 287 305 309 303 302 303 288 276 264 248 251 259 265 268 277 276 269 277 274
183 187 191 187 193 202 245 316 308 273 286 283 278 269 264 271 289 295 300 300 293 286 272 232 248 253 262 276 282 279 263 260 259 252 255 257 264 270 281 282 271 263 265
206 215 206 201 203 223 243 259 310 332 328 312 304 298 287 289 298 302 305 304 300 301 269 254 255 259 266 272 270 264 263 261 254 246 254 256 259 263 266 272 272 270 267
207 221 217 212 211 220 231 239 249 279 313 320 319 315 311 306 309 315 318 321 318 320 271 264 264 264 264 266 268 265 261 259 254 249 254 256 253 256 260 261 258 261 267
212 217 216 211 212 215 222 230 241 257 272 290 308 314 318 317 316 322 331 319 288 289 279 267 261 262 265 264 266 265 263 257 253 248 251 255 254 252 257 259 258 264 266
221 221 218 204 206 216 221 224 238 249 262 271 285 291 311 327 321 320 319 299 286 284 287 279 270 262 260 260 262 261 259 256 251 246 250 256 254 252 255 255 252 257 256
220 215 222 226 222 224 225 229 238 245 258 272 278 280 290 285 279 281 283 283 280 278 280 279 273 265 263 263 260 257 256 255 252 249 250 253 251 254 255 252 250 252 254
216 217 215 218 227 231 235 231 237 250 260 271 285 293 298 292 278 278 275 278 279 279 277 275 273 268 264 260 255 254 254 252 250 248 249 251 251 251 252 247 245 248 241
206 211 224 228 225 235 247 243 244 252 262 269 274 285 292 286 281 282 283 281 284 285 280 271 272 273 264 256 248 246 249 248 248 245 243 245 245 247 244 241 239 240 234
207 211 214 221 229 227 230 243 250 255 260 266 270 276 278 280 284 287 289 289 288 286 282 276 269 269 271 268 262 256 252 252 247 237 232 233 237 241 237 234 233 228 223
205 206 212 218 226 231 236 246 254 259 264 266 267 273 278 281 284 289 292 291 292 290 289 286 277 273 273 271 268 269 269 262 251 239 225 228 229 233 231 222 221 219 217
211 210 215 224 231 235 239 247 257 264 264 267 268 271 276 281 285 293 298 296 298 297 294 292 287 286 284 281 278 277 275 267 252 242 225 220 218 220 213 210 208 207 209
Height
1468 1469 1469 1470 1471 1472 1472 1473 1474 1475 1476 1476 1477 1477 1478 1478 1479 1479 1479 1479 1479 1479 1479 1480 1480 1480 1481 1481 1482 1482 1482 1482 1480 1479 1479 1479 1478 1477 1476 1475 1473 1472 1470
1466 1466 1467 1467 1468 1468 1469 1470 1471 1472 1473 1473 1474 1474 1474 1475 1475 1475 1475 1476 1476 1475 1476 1476 1475 1476 1476 1477 1477 1478 1478 1478 1477 1475 1475 1474 1474 1473 1471 1470 1469 1467 1466
1463 1464 1464 1465 1465 1465 1466 1467 1467 1468 1469 1470 1470 1471 1471 1471 1472 1472 1472 1472 1472 1472 1472 1472 1471 1472 1472 1472 1473 1473 1473 1473 1473 1472 1470 1470 1469 1468 1467 1466 1465 1463 1462
1461 1462 1462 1462 1463 1463 1463 1464 1464 1465 1466 1467 1467 1468 1468 1468 1468 1469 1469 1469 1468 1468 1468 1468 1467 1468 1468 1468 1468 1469 1469 1469 1468 1468 1466 1466 1465 1464 1463 1462 1460 1459 1458
1459 1459 1460 1460 1461 1461 1461 1461 1462 1462 1463 1464 1464 1464 1465 1465 1465 1465 1465 1465 1465 1465 1465 1464 1464 1464 1464 1464 1464 1464 1464 1464 1464 1463 1462 1462 1461 1460 1459 1458 1456 1455 1453
1457 1458 1458 1458 1458 1458 1459 1459 1459 1460 1460 1461 1461 1461 1461 1461 1462 1462 1462 1461 1461 1461 1461 1460 1460 1459 1459 1460 1460 1460 1460 1460 1459 1459 1458 1458 1457 1457 1456 1454 1453 1451 1449
1455 1455 1456 1456 1456 1456 1457 1457 1457 1457 1458 1458 1458 1458 1458 1458 1458 1458 1458 1458 1457 1457 1457 1456 1456 1455 1455 1455 1455 1455 1455 1455 1456 1455 1454 1453 1453 1453 1452 1451 1450 1448 1446
1452 1453 1453 1454 1454 1454 1454 1454 1454 1455 1455 1455 1455 1455 1455 1455 1455 1455 1455 1454 1454 1453 1453 1452 1452 1451 1452 1451 1451 1451 1450 1451 1451 1451 1450 1450 1449 1449 1448 1448 1446 1444 1443
1450 1450 1451 1451 1451 1451 1451 1451 1452 1452 1452 1451 1451 1452 1452 1452 1452 1452 1451 1451 1450 1450 1449 1449 1448 1448 1448 1448 1447 1447 1446 1446 1447 1447 1446 1446 1445 1445 1445 1444 1443 1441 1439
1447 1448 1448 1449 1449 1449 1449 1449 1449 1449 1449 1448 1448 1449 1449 1449 1449 1449 1448 1448 1447 1446 1446 1445 1445 1445 1444 1444 1444 1443 1443 1442 1443 1442 1442 1442 1441 1441 1441 1440 1439 1438 1436
1444 1445 1446 1446 1446 1446 1446 1446 1446 1446 1446 1446 1446 1446 1446 1446 1446 1445 1445 1444 1444 1443 1442 1442 1442 1441 1441 1440 1440 1440 1439 1439 1439 1439 1438 1438 1437 1437 1437 1436 1435 1435 1433
1441 1442 1442 1443 1443 1443 1443 1443 1443 1443 1443 1443 1443 1443 1443 1443 1443 1442 1442 1441 1441 1440 1439 1438 1438 1438 1437 1437 1436 1436 1436 1436 1436 1435 1435 1434 1434 1433 1433 1432 1432 1431 1430
1439 1439 1440 1441 1441 1441 1441 1440 1440 1441 1440 1440 1440 1440 1440 1440 1440 1439 1439 1438 1437 1437 1436 1435 1435 1434 1434 1433 1433 1433 1433 1432 1432 1431 1431 1430 1430 1430 1430 1429 1428 1427 1426
1437 1437 1437 1438 1438 1438 1438 1438 1438 1438 1438 1438 1438 1438 1437 1437 1437 1436 1436 1435 1434 1433 1432 1432 1431 1431 1430 1430 1430 1429 1429 1429 1428 1428 1428 1427 1427 1427 1426 1426 1425 1424 1423
1434 1435 1435 1436 1436 1436 1436 1436 1436 1437 1437 1436 1436 1435 1435 1434 1434 1434 1433 1432 1431 1430 1429 1428 1428 1428 1427 1427 1426 1426 1426 1426 1425 1425 1425 1424 1424 1424 1423 1423 1422 1421 1420
1433 1433 1433 1433 1434 1434 1434 1434 1434 1435 1434 1434 1434 1433 1433 1432 1432 1431 1430 1429 1428 1428 1427 1426 1425 1425 1424 1424 1423 1423 1422 1422 1422 1422 1422 1422 1421 1421 1420 1420 1419 1418 1418
1431 1431 1431 1432 1432 1432 1432 1432 1431 1432 1432 1431 1431 1431 1430 1430 1429 1428 1427 1426 1426 1425 1424 1423 1423 1422 1422 1421 1420 1420 1419 1419 1419 1419 1419 1419 1418 1418 1417 1417 1416 1416 1415
1429 1430 1430 1430 1430 1430 1430 1430 1430 1429 1429 1428 1429 1428 1428 1427 1426 1425 1425 1424 1423 1422 1421 1421 1420 1419 1419 1418 1418 1417 1417 1417 1416 1416 1416 1416 1416 1415 1415 1414 1414 1414 1413
1428 1428 1428 1428 1428 1428 1428 1428 1428 1427 1427 1426 1426 1426 1426 1425 1424 1423 1422 1421 1420 1419 1419 1418 1417 1417 1416 1415 1415 1414 1414 1414 1414 1413 1413 1413 1413 1413 1412 1412 1412 1411 1411
1426 1426 1426 1426 1426 1426 1426 1426 1425 1425 1425 1424 1424 1423 1423 1422 1421 1420 1419 1419 1418 1417 1416 1415 1414 1414 1413 1412 1412 1411 1411 1411 1411 1411 1411 1411 1410 1410 1410 1410 1409 1409 1408
1423 1423 1424 1424 1424 1424 1424 1423 1423 1423 1423 1422 1422 1421 1421 1419 1418 1418 1417 1416 1415 1414 1413 1412 1411 1411 1410 1409 1409 1408 1408 1408 1408 1408 1408 1408 1408 1408 1407 1407 1407 1406 1406
1421 1421 1421 1421 1421 1422 1422 1422 1421 1421 1420 1420 1419 1419 1418 1417 1416 1415 1414 1413 1413 1411 1410 1409 1408 1408 1407 1407 1406 1406 1405 1405 1405 1405 1405 1405 1405 1405 1405 1405 1404 1404 1404
1418 1419 1419 1419 1419 1419 1419 1419 1419 1419 1418 1418 1417 1416 1416 1415 1414 1413 1412 1411 1410 1408 1407 1406 1406 1405 1404 1404 1403 1403 1402 1402 1402 1402 1402 1402 1402 1402 1402 1402 1402 1402 1402
1416 1416 1417 1417 1417 1417 1417 1417 1417 1417 1416 1416 1415 1414 1413 1412 1411 1410 1409 1408 1407 1406 1405 1404 1403 1402 1402 1401 1400 1400 1400 1400 1400 1400 1400 1400 1400 1400 1400 1400 1400 1400 1400
1414 1414 1414 1415 1415 1415 1415 1415 1415 1414 1414 1413 1413 1412 1411 1410 1408 1407 1406 1405 1404 1403 1402 1402 1401 1400 1399 1399 1398 1398 1397 1397 1397 1397 1398 1398 1398 1398 1398 1398 1398 1398 1398
1411 1412 1412 1412 1413 1413 1413 1412 1412 1412 1411 1411 1410 1409 1408 1407 1406 1405 1404 1403 1402 1401 1400 1399 1399 1398 1397 1397 1396 1396 1395 1395 1395 1395 1395 1395 1396 1396 1396 1396 1396 1396 1396